VIR36A EGKK-LKPR

Flight info

Callsign VIR36A
Flight time 1h 25m
Altitude 39000
Route MIMFO Y312 DVR UL9 KONAN UL607 SPI DCT GUBAX DCT KOMIB DCT TONSU Z35 ODOMO DCT LOMKI
Aircraft B789/H-SDE1E2E3FGHIJ2J3J4J5M1RWXY/LB1D1

Departure

Time 2026-04-14 16:03
Airport London Gatwick Airport (EGKK)

Arrival

Time 2026-04-14 17:29
Airport Václav Havel Airport Prague (LKPR)
Time Latitude Longitude Altitude Speed Heading
2026-04-14 15:27 51.15568 -0.17105 225 ft 0 kts 168°
2026-04-14 15:45 51.15569 -0.17106 211 ft 1 kts 168°
2026-04-14 15:45 51.15593 -0.17111 218 ft 4 kts 179°
2026-04-14 15:46 51.15617 -0.17107 223 ft 4 kts 203°
2026-04-14 15:46 51.15635 -0.17087 215 ft 4 kts 243°
2026-04-14 15:46 51.15638 -0.17073 216 ft 6 kts 257°
2026-04-14 15:48 51.15637 -0.17082 218 ft 5 kts 257°
2026-04-14 15:48 51.15618 -0.17200 219 ft 15 kts 255°
2026-04-14 15:49 51.15581 -0.17302 220 ft 5 kts 203°
2026-04-14 15:49 51.15530 -0.17303 211 ft 11 kts 172°
2026-04-14 15:49 51.15449 -0.17277 217 ft 8 kts 168°
2026-04-14 15:49 51.15445 -0.17276 213 ft 0 kts 169°
2026-04-14 15:50 51.15443 -0.17276 214 ft 0 kts 169°
2026-04-14 15:51 51.15442 -0.17275 214 ft 1 kts 169°
2026-04-14 15:51 51.15403 -0.17263 219 ft 7 kts 167°
2026-04-14 15:51 51.15348 -0.17244 212 ft 9 kts 168°
2026-04-14 15:52 51.15289 -0.17215 219 ft 9 kts 154°
2026-04-14 15:52 51.15267 -0.17178 219 ft 3 kts 112°
2026-04-14 15:52 51.15264 -0.17134 218 ft 5 kts 90°
2026-04-14 15:52 51.15269 -0.17062 216 ft 4 kts 79°
2026-04-14 15:53 51.15273 -0.17028 217 ft 8 kts 79°
2026-04-14 15:53 51.15286 -0.16933 212 ft 5 kts 77°
2026-04-14 15:53 51.15286 -0.16931 212 ft 0 kts 77°
2026-04-14 15:55 51.15286 -0.16930 212 ft 1 kts 77°
2026-04-14 15:55 51.15290 -0.16892 219 ft 6 kts 86°
2026-04-14 15:56 51.15286 -0.16860 219 ft 1 kts 119°
2026-04-14 15:56 51.15283 -0.16855 218 ft 0 kts 133°
2026-04-14 15:56 51.15282 -0.16855 218 ft 0 kts 136°
2026-04-14 15:56 51.15282 -0.16854 218 ft 0 kts 138°
2026-04-14 15:57 51.15280 -0.16851 222 ft 1 kts 139°
2026-04-14 15:57 51.15279 -0.16850 222 ft 0 kts 139°
2026-04-14 15:59 51.15246 -0.16821 217 ft 4 kts 161°
2026-04-14 16:01 51.15244 -0.16820 220 ft 3 kts 161°
2026-04-14 16:01 51.15166 -0.16786 216 ft 14 kts 170°
2026-04-14 16:02 51.15123 -0.16822 219 ft 12 kts 237°
2026-04-14 16:02 51.15117 -0.16850 219 ft 0 kts 254°
2026-04-14 16:03 51.15116 -0.16856 220 ft 10 kts 254°
2026-04-14 16:03 51.15040 -0.17394 221 ft 84 kts 257°
2026-04-14 16:03 51.14844 -0.18782 226 ft 171 kts 256°
2026-04-14 16:03 51.14655 -0.20397 1152 ft 163 kts 256°
2026-04-14 16:04 51.14449 -0.21897 2051 ft 174 kts 247°
2026-04-14 16:04 51.14133 -0.23941 2648 ft 207 kts 253°
2026-04-14 16:04 51.13843 -0.26253 3665 ft 212 kts 255°
2026-04-14 16:04 51.13726 -0.28626 4661 ft 227 kts 275°
2026-04-14 16:05 51.14342 -0.31064 4988 ft 246 kts 297°
2026-04-14 16:05 51.14546 -0.31576 4990 ft 245 kts 298°
2026-04-14 16:05 51.14943 -0.32536 4989 ft 247 kts 297°
2026-04-14 16:05 51.16199 -0.34359 5655 ft 252 kts 331°
2026-04-14 16:06 51.17975 -0.34943 5990 ft 268 kts
2026-04-14 16:06 51.19668 -0.33848 6532 ft 260 kts 38°
2026-04-14 16:06 51.20797 -0.31680 7630 ft 256 kts 71°
2026-04-14 16:06 51.21054 -0.28924 8600 ft 252 kts 102°
2026-04-14 16:07 51.20536 -0.26343 9540 ft 251 kts 114°
2026-04-14 16:07 51.20115 -0.23610 10440 ft 259 kts 97°
2026-04-14 16:07 51.20281 -0.20695 11211 ft 269 kts 83°
2026-04-14 16:07 51.20642 -0.17641 11682 ft 293 kts 78°
2026-04-14 16:08 51.21121 -0.14340 12096 ft 317 kts 78°
2026-04-14 16:08 51.21614 -0.10755 12404 ft 343 kts 79°
2026-04-14 16:08 51.22107 -0.06881 12658 ft 370 kts 79°
2026-04-14 16:08 51.22631 -0.02783 13313 ft 379 kts 78°
2026-04-14 16:09 51.22953 0.01399 14093 ft 385 kts 89°
2026-04-14 16:09 51.22877 0.05668 14844 ft 389 kts 94°
2026-04-14 16:09 51.22684 0.09988 15130 ft 399 kts 95°
2026-04-14 16:09 51.22449 0.14370 15133 ft 394 kts 96°
2026-04-14 16:10 51.22202 0.18717 15212 ft 395 kts 96°
2026-04-14 16:10 51.21969 0.23066 15889 ft 393 kts 95°
2026-04-14 16:10 51.21785 0.27441 16585 ft 398 kts 94°
2026-04-14 16:10 51.21599 0.31852 17311 ft 402 kts 95°
2026-04-14 16:11 51.21384 0.36341 18048 ft 406 kts 95°
2026-04-14 16:11 51.21160 0.40864 18652 ft 411 kts 95°
2026-04-14 16:11 51.20942 0.45438 19225 ft 415 kts 94°
2026-04-14 16:11 51.20729 0.49988 19798 ft 419 kts 94°
2026-04-14 16:12 51.20504 0.54644 20323 ft 425 kts 94°
2026-04-14 16:12 51.20271 0.59373 20863 ft 429 kts 93°
2026-04-14 16:12 51.20035 0.64147 21380 ft 434 kts 93°
2026-04-14 16:12 51.19797 0.68966 21901 ft 438 kts 93°
2026-04-14 16:13 51.19553 0.73841 22424 ft 443 kts 92°
2026-04-14 16:13 51.19304 0.78758 22920 ft 447 kts 92°
2026-04-14 16:13 51.19051 0.83721 23511 ft 451 kts 92°
2026-04-14 16:13 51.18797 0.88666 23910 ft 455 kts 92°
2026-04-14 16:14 51.18536 0.93712 24327 ft 458 kts 92°
2026-04-14 16:14 51.18271 0.98779 24723 ft 460 kts 92°
2026-04-14 16:14 51.18003 1.03870 25115 ft 463 kts 92°
2026-04-14 16:14 51.17731 1.08996 25493 ft 465 kts 92°
2026-04-14 16:15 51.17455 1.14141 25895 ft 467 kts 92°
2026-04-14 16:15 51.17176 1.19309 26285 ft 469 kts 92°
2026-04-14 16:15 51.16893 1.24499 26669 ft 472 kts 92°
2026-04-14 16:15 51.16610 1.29653 27059 ft 474 kts 92°
2026-04-14 16:16 51.16320 1.34895 27450 ft 477 kts 92°
2026-04-14 16:16 51.16038 1.40165 27829 ft 479 kts 91°
2026-04-14 16:16 51.15802 1.45466 28215 ft 481 kts 90°
2026-04-14 16:16 51.15568 1.50798 28605 ft 484 kts 91°
2026-04-14 16:17 51.15303 1.56150 29016 ft 486 kts 91°
2026-04-14 16:17 51.15026 1.61540 29378 ft 489 kts 91°
2026-04-14 16:17 51.14760 1.66949 29783 ft 491 kts 91°
2026-04-14 16:17 51.14497 1.72388 30156 ft 494 kts 91°
2026-04-14 16:18 51.14222 1.77855 30510 ft 497 kts 91°
2026-04-14 16:18 51.13942 1.83287 30839 ft 500 kts 91°
2026-04-14 16:18 51.13654 1.88889 31172 ft 502 kts 91°
2026-04-14 16:18 51.13372 1.94369 31503 ft 505 kts 91°
2026-04-14 16:19 51.13082 1.99953 31833 ft 507 kts 92°
2026-04-14 16:19 51.12785 2.05560 32163 ft 510 kts 92°
2026-04-14 16:19 51.12484 2.11205 32484 ft 513 kts 92°
2026-04-14 16:19 51.12180 2.16867 32808 ft 515 kts 92°
2026-04-14 16:20 51.11872 2.22570 33148 ft 518 kts 92°
2026-04-14 16:20 51.11559 2.28274 33623 ft 517 kts 92°
2026-04-14 16:20 51.11245 2.33959 34106 ft 516 kts 92°
2026-04-14 16:20 51.10929 2.39640 34519 ft 515 kts 92°
2026-04-14 16:21 51.10615 2.45247 34898 ft 515 kts 92°
2026-04-14 16:21 51.10293 2.50920 35285 ft 515 kts 92°
2026-04-14 16:21 51.09969 2.56587 35661 ft 514 kts 92°
2026-04-14 16:21 51.09641 2.62251 36019 ft 514 kts 92°
2026-04-14 16:22 51.08991 2.67864 36368 ft 518 kts 103°
2026-04-14 16:22 51.08007 2.73379 36656 ft 520 kts 103°
2026-04-14 16:22 51.06995 2.78905 36999 ft 520 kts 104°
2026-04-14 16:22 51.05985 2.84413 37319 ft 520 kts 103°
2026-04-14 16:23 51.04997 2.89867 37655 ft 521 kts 103°
2026-04-14 16:23 51.03993 2.95402 37982 ft 521 kts 104°
2026-04-14 16:23 51.02978 3.00933 38317 ft 521 kts 104°
2026-04-14 16:23 51.01958 3.06460 38606 ft 522 kts 104°
2026-04-14 16:24 51.00939 3.11995 38916 ft 522 kts 104°
2026-04-14 16:24 50.99920 3.17521 39170 ft 523 kts 104°
2026-04-14 16:24 50.98890 3.23080 39168 ft 525 kts 104°
2026-04-14 16:25 50.96832 3.34113 39180 ft 518 kts 104°
2026-04-14 16:25 50.94800 3.44974 39171 ft 516 kts 104°
2026-04-14 16:26 50.92746 3.55873 39181 ft 516 kts 105°
2026-04-14 16:26 50.90684 3.66749 39186 ft 515 kts 105°
2026-04-14 16:27 50.88589 3.77589 39201 ft 515 kts 105°
2026-04-14 16:27 50.86495 3.88414 39203 ft 514 kts 105°
2026-04-14 16:28 50.84412 3.99105 39215 ft 513 kts 105°
2026-04-14 16:28 50.82584 4.08441 39212 ft 512 kts 105°
2026-04-14 16:29 50.80473 4.19169 39224 ft 510 kts 106°
2026-04-14 16:29 50.78354 4.29872 39218 ft 509 kts 106°
2026-04-14 16:30 50.76249 4.40452 39228 ft 508 kts 106°
2026-04-14 16:30 50.74125 4.51069 39215 ft 506 kts 107°
2026-04-14 16:31 50.71997 4.61646 39219 ft 505 kts 107°
2026-04-14 16:31 50.69965 4.72234 39208 ft 504 kts 106°
2026-04-14 16:32 50.67923 4.82712 39215 ft 503 kts 107°
2026-04-14 16:32 50.65858 4.93251 39218 ft 503 kts 107°
2026-04-14 16:33 50.63696 5.03725 39222 ft 502 kts 108°
2026-04-14 16:33 50.61547 5.14170 39215 ft 501 kts 108°
2026-04-14 16:34 50.59411 5.24497 39225 ft 500 kts 108°
2026-04-14 16:34 50.57244 5.34887 39219 ft 499 kts 108°
2026-04-14 16:35 50.55074 5.45273 39223 ft 499 kts 109°
2026-04-14 16:35 50.52895 5.55624 39216 ft 498 kts 109°
2026-04-14 16:36 50.51140 5.66042 39238 ft 497 kts 98°
2026-04-14 16:36 50.50197 5.76799 39213 ft 497 kts 98°
2026-04-14 16:37 50.49231 5.87548 39213 ft 497 kts 98°
2026-04-14 16:37 50.48259 5.98277 39203 ft 495 kts 98°
2026-04-14 16:38 50.47288 6.08892 39205 ft 494 kts 98°
2026-04-14 16:38 50.46301 6.19555 39196 ft 493 kts 99°
2026-04-14 16:39 50.45308 6.30192 39195 ft 492 kts 99°
2026-04-14 16:39 50.44305 6.40807 39190 ft 491 kts 99°
2026-04-14 16:40 50.43302 6.51334 39197 ft 491 kts 99°
2026-04-14 16:40 50.42283 6.61907 39191 ft 490 kts 99°
2026-04-14 16:41 50.41256 6.72475 39202 ft 490 kts 100°
2026-04-14 16:41 50.40220 6.83027 39189 ft 489 kts 100°
2026-04-14 16:42 50.39176 6.93556 39195 ft 489 kts 100°
2026-04-14 16:42 50.38129 7.04018 39194 ft 489 kts 100°
2026-04-14 16:43 50.37067 7.14527 39196 ft 488 kts 100°
2026-04-14 16:43 50.35996 7.25030 39199 ft 489 kts 101°
2026-04-14 16:44 50.34915 7.35542 39204 ft 489 kts 101°
2026-04-14 16:44 50.33832 7.45962 39200 ft 488 kts 101°
2026-04-14 16:45 50.32185 7.61652 39206 ft 487 kts 101°
2026-04-14 16:45 50.31095 7.71902 39202 ft 486 kts 101°
2026-04-14 16:46 50.29969 7.82413 39201 ft 493 kts 101°
2026-04-14 16:46 50.28891 7.92832 39203 ft 485 kts 98°
2026-04-14 16:47 50.28019 8.03266 39195 ft 483 kts 100°
2026-04-14 16:47 50.27139 8.13677 39192 ft 483 kts 99°
2026-04-14 16:48 50.26259 8.24093 39193 ft 483 kts 100°
2026-04-14 16:48 50.25360 8.34472 39191 ft 482 kts 100°
2026-04-14 16:49 50.24469 8.44770 39195 ft 481 kts 100°
2026-04-14 16:49 50.23558 8.55104 39187 ft 480 kts 100°
2026-04-14 16:50 50.22645 8.65416 39189 ft 479 kts 100°
2026-04-14 16:50 50.21720 8.75711 39183 ft 479 kts 100°
2026-04-14 16:51 50.20788 8.86004 39187 ft 478 kts 101°
2026-04-14 16:51 50.19848 8.96259 39183 ft 477 kts 101°
2026-04-14 16:52 50.18909 9.06427 39181 ft 476 kts 101°
2026-04-14 16:52 50.17953 9.16663 39178 ft 477 kts 101°
2026-04-14 16:53 50.16987 9.26911 39179 ft 477 kts 101°
2026-04-14 16:53 50.16011 9.37159 39177 ft 479 kts 101°
2026-04-14 16:54 50.15032 9.47350 39178 ft 478 kts 101°
2026-04-14 16:54 50.14038 9.57584 39178 ft 477 kts 101°
2026-04-14 16:55 50.13037 9.67814 39179 ft 477 kts 101°
2026-04-14 16:55 50.12025 9.78039 39175 ft 478 kts 102°
2026-04-14 16:56 50.11013 9.88195 39185 ft 477 kts 102°
2026-04-14 16:56 50.09987 9.98376 39189 ft 476 kts 102°
2026-04-14 16:57 50.08953 10.08552 39191 ft 475 kts 102°
2026-04-14 16:57 50.07912 10.18702 39192 ft 475 kts 102°
2026-04-14 16:58 50.06867 10.28850 39197 ft 475 kts 102°
2026-04-14 16:58 50.05851 10.38925 39194 ft 474 kts 102°
2026-04-14 16:59 50.04807 10.49034 39192 ft 472 kts 102°
2026-04-14 16:59 50.03765 10.59109 39190 ft 472 kts 102°
2026-04-14 17:00 50.02711 10.69180 39188 ft 471 kts 102°
2026-04-14 17:00 50.01658 10.79164 39188 ft 471 kts 103°
2026-04-14 17:01 50.00590 10.89193 39200 ft 470 kts 103°
2026-04-14 17:01 49.99517 10.99208 39196 ft 470 kts 103°
2026-04-14 17:02 49.98431 11.09233 39191 ft 471 kts 103°
2026-04-14 17:02 49.97345 11.19196 39192 ft 471 kts 103°
2026-04-14 17:03 49.96780 11.29348 39190 ft 474 kts 96°
2026-04-14 17:03 49.96440 11.39577 39191 ft 473 kts 96°
2026-04-14 17:04 49.96123 11.49771 39183 ft 473 kts 96°
2026-04-14 17:04 49.95783 11.59882 39177 ft 472 kts 96°
2026-04-14 17:05 49.95440 11.70053 39168 ft 471 kts 96°
2026-04-14 17:05 49.95081 11.80210 39165 ft 471 kts 96°
2026-04-14 17:06 49.94717 11.90380 39160 ft 472 kts 96°
2026-04-14 17:06 49.94494 12.00583 39169 ft 473 kts 95°
2026-04-14 17:07 49.94239 12.10705 39164 ft 473 kts 94°
2026-04-14 17:07 49.94044 12.20925 39165 ft 473 kts 95°
2026-04-14 17:08 49.93800 12.31129 39168 ft 474 kts 95°
2026-04-14 17:08 49.93552 12.41272 39167 ft 473 kts 95°
2026-04-14 17:09 49.93245 12.51457 39165 ft 472 kts 95°
2026-04-14 17:09 49.92958 12.61643 39166 ft 473 kts 95°
2026-04-14 17:10 49.92646 12.71833 39165 ft 473 kts 95°
2026-04-14 17:10 49.92339 12.81881 38954 ft 461 kts 95°
2026-04-14 17:11 49.92183 12.86828 38465 ft 459 kts 95°
2026-04-14 17:11 49.92021 12.91780 37831 ft 461 kts 95°
2026-04-14 17:11 49.91859 12.96756 37128 ft 462 kts 95°
2026-04-14 17:11 49.91698 13.01735 36465 ft 461 kts 96°
2026-04-14 17:12 49.91533 13.06703 35766 ft 460 kts 96°
2026-04-14 17:12 49.91365 13.11656 35070 ft 460 kts 96°
2026-04-14 17:12 49.91195 13.16607 34349 ft 459 kts 96°
2026-04-14 17:12 49.91027 13.21478 33558 ft 458 kts 96°
2026-04-14 17:13 49.90855 13.26404 32782 ft 457 kts 96°
2026-04-14 17:13 49.90679 13.31339 31990 ft 461 kts 96°
2026-04-14 17:13 49.90497 13.36355 31154 ft 468 kts 96°
2026-04-14 17:13 49.90428 13.41400 30344 ft 469 kts 88°
2026-04-14 17:14 49.90939 13.46389 29492 ft 469 kts 77°
2026-04-14 17:14 49.92036 13.51133 28684 ft 468 kts 66°
2026-04-14 17:14 49.93689 13.55469 27870 ft 466 kts 55°
2026-04-14 17:14 49.95612 13.59412 27069 ft 462 kts 54°
2026-04-14 17:15 49.97558 13.63362 26278 ft 459 kts 53°
2026-04-14 17:15 49.99404 13.67076 25552 ft 456 kts 53°
2026-04-14 17:15 50.01330 13.70974 24766 ft 453 kts 53°
2026-04-14 17:15 50.03234 13.74859 23991 ft 450 kts 53°
2026-04-14 17:16 50.05128 13.78722 23180 ft 447 kts 53°
2026-04-14 17:16 50.06856 13.82676 22443 ft 438 kts 63°
2026-04-14 17:16 50.07989 13.87019 21703 ft 430 kts 76°
2026-04-14 17:16 50.08570 13.91525 20988 ft 421 kts 84°
2026-04-14 17:17 50.08553 13.96011 20304 ft 411 kts 101°
2026-04-14 17:17 50.07785 14.00099 19539 ft 385 kts 116°
2026-04-14 17:17 50.06620 14.03663 19016 ft 355 kts 122°
2026-04-14 17:17 50.05405 14.06845 18577 ft 330 kts 124°
2026-04-14 17:18 50.04234 14.09768 18147 ft 307 kts 124°
2026-04-14 17:18 50.03133 14.12484 17776 ft 287 kts 125°
2026-04-14 17:18 50.02077 14.15086 17430 ft 280 kts 124°
2026-04-14 17:18 50.01065 14.17583 17097 ft 267 kts 125°
2026-04-14 17:19 50.00080 14.20024 16469 ft 273 kts 124°
2026-04-14 17:19 49.99060 14.22539 15697 ft 277 kts 125°
2026-04-14 17:19 49.98043 14.25042 14975 ft 278 kts 125°
2026-04-14 17:19 49.97017 14.27562 14254 ft 274 kts 125°
2026-04-14 17:20 49.96013 14.30028 13487 ft 269 kts 125°
2026-04-14 17:20 49.95032 14.32440 12677 ft 260 kts 125°
2026-04-14 17:20 49.94079 14.34792 11908 ft 255 kts 125°
2026-04-14 17:20 49.93132 14.37129 11163 ft 260 kts 125°
2026-04-14 17:21 49.92148 14.39548 10456 ft 270 kts 125°
2026-04-14 17:21 49.91141 14.42014 9705 ft 265 kts 124°
2026-04-14 17:21 49.90177 14.44370 8920 ft 254 kts 125°
2026-04-14 17:21 49.89259 14.46616 8231 ft 241 kts 125°
2026-04-14 17:22 49.88374 14.48786 7532 ft 239 kts 124°
2026-04-14 17:22 49.87847 14.51248 6782 ft 249 kts 93°
2026-04-14 17:22 49.88361 14.53757 6039 ft 251 kts 57°
2026-04-14 17:22 49.89597 14.55603 5299 ft 244 kts 41°
2026-04-14 17:23 49.90948 14.57146 5002 ft 241 kts 38°
2026-04-14 17:23 49.92300 14.58656 5011 ft 240 kts 39°
2026-04-14 17:23 49.93693 14.60131 4986 ft 246 kts 28°
2026-04-14 17:23 49.95381 14.60402 4794 ft 247 kts 348°
2026-04-14 17:24 49.96815 14.59041 4569 ft 246 kts 309°
2026-04-14 17:24 49.97469 14.56668 4380 ft 240 kts 280°
2026-04-14 17:24 49.97725 14.54118 4242 ft 238 kts 275°
2026-04-14 17:24 49.97979 14.51595 4087 ft 243 kts 282°
2026-04-14 17:25 49.98772 14.49371 3999 ft 238 kts 304°
2026-04-14 17:25 49.99748 14.47335 4011 ft 236 kts 306°
2026-04-14 17:25 50.00724 14.45334 4016 ft 230 kts 306°
2026-04-14 17:25 50.01684 14.43356 3825 ft 230 kts 307°
2026-04-14 17:26 50.02630 14.41394 3527 ft 224 kts 307°
2026-04-14 17:26 50.03569 14.39473 3228 ft 223 kts 308°
2026-04-14 17:26 50.04483 14.37587 2939 ft 210 kts 308°
2026-04-14 17:26 50.05302 14.35886 2659 ft 181 kts 308°
2026-04-14 17:27 50.05997 14.34460 2423 ft 159 kts 310°
2026-04-14 17:27 50.06649 14.33116 2192 ft 151 kts 309°
2026-04-14 17:27 50.07246 14.31871 1943 ft 136 kts 311°
2026-04-14 17:27 50.07780 14.30686 1761 ft 133 kts 310°
2026-04-14 17:28 50.08334 14.29565 1556 ft 134 kts 314°
2026-04-14 17:28 50.08908 14.28441 1362 ft 126 kts 311°
2026-04-14 17:28 50.09426 14.27368 1222 ft 118 kts 311°
2026-04-14 17:28 50.09808 14.26601 1212 ft 69 kts 308°
2026-04-14 17:29 50.10074 14.26072 1197 ft 55 kts 307°
2026-04-14 17:29 50.10269 14.25704 1193 ft 28 kts 330°
2026-04-14 17:29 50.10395 14.25661 1189 ft 3 kts
2026-04-14 17:29 50.10404 14.25662 1189 ft 9 kts
2026-04-14 17:30 50.10534 14.25717 1177 ft 28 kts 30°
2026-04-14 17:30 50.10710 14.25909 1175 ft 28 kts 35°
2026-04-14 17:30 50.10853 14.26061 1174 ft 21 kts 34°
2026-04-14 17:30 50.10894 14.26140 1175 ft 5 kts 93°
2026-04-14 17:31 50.10865 14.26230 1175 ft 15 kts 121°
2026-04-14 17:31 50.10798 14.26398 1175 ft 18 kts 124°
2026-04-14 17:31 50.10751 14.26514 1174 ft 5 kts 106°
2026-04-14 17:31 50.10764 14.26568 1174 ft 7 kts 52°
2026-04-14 17:32 50.10772 14.26577 1174 ft 1 kts 31°
2026-04-14 17:32 50.10778 14.26582 1176 ft 0 kts 30°